Regional Weather Roundup
Issued by NWS Portland, ME

Current Version | Previous Version | Text Only | Print | Product List | Glossary On
Versions: 1 2 3 4 5 6 7 8 9 10 11 12 13 14 15 16 17 18 19 20 21 22 23 24 25 26 27 28 29 30 31 32 33 34 35 36 37 38 39 40 41 42 43 44 45 46 47 48 49 50
000
ASUS41 KGYX 140710
RWRGYX
WEATHER ROUNDUP FOR MAINE AND NEW HAMPSHIRE
NATIONAL WEATHER SERVICE GRAY ME
200 AM EST THU NOV 14 2019

MEZ002-005-006-010-012-015-018-020-021-024-026-027-029-140800-
MAINE

CITY           SKY/WX    TMP DP  RH WIND       PRES   REMARKS
PORTLAND       FAIR      15   8  73 W5        30.47R
SANFORD        FAIR       6   4  91 CALM      30.47R
BAR HARBOR     FAIR      14  10  84 W5        30.45R
WISCASSET      FAIR      12   7  80 CALM      30.48R
ROCKLAND       FAIR      14   9  80 W7        30.46R
FRYEBURG       FAIR       7   3  84 CALM      30.45R
LEWISTONAUBURN FAIR       9   7  92 N3        30.46R
AUGUSTA        FAIR      14   8  77 W3        30.45R
WATERVILLE     FAIR       7   3  84 SW3       30.42R
BANGOR         FAIR       8   7  95 CALM      30.43S
GREENVILLE       N/A     10   5  80 N5        30.31R
MILLINOCKET    FAIR      16   9  74 W6        30.41R
HOULTON        FAIR       2  -2  83 CALM      30.37R
PRESQUE ISLE   FAIR       0  -3  87 CALM      30.37R
FRENCHVILLE    FAIR      11   6  81 NW9       30.29R
CARIBOU        FAIR       6   3  87 S3        30.34R
$$

NHZ002-005-008-009-011-012-014-140800-
NEW HAMPSHIRE

CITY           SKY/WX    TMP DP  RH WIND       PRES   REMARKS
PORTSMOUTH     MOCLDY    17   9  70 NW5       30.46R
ROCHESTER      FAIR      12   7  80 NW6       30.45R
NASHUA         FAIR      13   8  81 W3        30.48R
MANCHESTER     MOCLDY    17  10  74 CALM      30.45R
CONCORD        FAIR      11   8  88 CALM      30.45R
LACONIA        FAIR      11   8  88 CALM      30.44R
PLYMOUTH       MOCLDY    13  10  87 CALM      30.44S
BERLIN         FAIR       5   0  79 CALM      30.39R
WHITEFIELD     MOCLDY     6   2  83 CALM      30.38S
JAFFREY        FAIR      13  10  88 CALM      30.39R
KEENE          FAIR      15  11  83 CALM      30.45R
LEBANON        CLOUDY    15   9  76 CALM      30.43R
MT WASHINGTON  MOCLDY     3 -22  30 NE9         N/A
$$

VTZ005-007-008-140800-
VERMONT

CITY           SKY/WX    TMP DP  RH WIND       PRES   REMARKS
ST JOHNSBURY     N/A      6   3  87 MISG      30.41S
MONTPELIER     CLOUDY     9   5  84 E3        30.40S
BURLINGTON     CLOUDY    17   8  67 SE6       30.40F
$$

MAZ007-012-024-CTZ003-RIZ002-NYZ038-NYZ072-140800-
SOUTHERN NEW ENGLAND AND NY

CITY           SKY/WX    TMP DP  RH WIND       PRES   REMARKS
BOSTON         MOCLDY    24   6  46 NW8       30.48R
WORCESTER      FAIR      17   7  64 CALM      30.40R
NANTUCKET      FAIR      26  18  71 W3        30.45R
PROVIDENCE     FAIR      21  10  62 CALM      30.48S
HARTFORD       CLOUDY    20  10  65 CALM      30.46R
ALBANY         CLOUDY    21  11  65 CALM      30.44S
NEW YORK CITY  MOCLDY    30   9  41 E6        30.45F
$$

ANZ081-ANZ082-ANZ150-NHZ014-MEZ023>029-140800-
COASTAL MARINE OBSERVATIONS

STATION/POSITION TIME  TEMP    WIND        PRES    WAVE
                       AIR SEA DIR/SP/G            HT/PER
                 (UTC) (F)     (DEG/KT/KT) (MB)    (FT/S)
MOUNT DESERT ROC 0700          360/  4/  6 1030.2R
ISLE OF SHOALS   0600   25     330/  9/ 11 1030.8S
JEFFREYS LEDGE   0638      51                N/A     3/ 5
CASHES LEDGE BUO 0650   28 50   10/  6/ 10 1031.1R   3/ 5
GEORGES BANK BUO 0650      53              1029.5R   8/ 8
$$

.............KEY..............
   WCI - WIND CHILL
   TC  - TEMPERATURE IN CELSIUS
   VSB - VISIBILITY IN MILES
   HX  - HEAT INDEX
   FAIR- INDICATES FEW OR NO CLOUDS BELOW 12,000 FT, WITH NO
         SIGNIFICANT WEATHER AND/OR OBSTRUCTIONS TO VISIBILITY.





USA.gov is the U.S. government's official web portal to all federal, state and local government web resources and services.